Regional Weather Roundup
Issued by NWS

Home | Current Version | Previous Version | Graphics & Text | Print | Product List | Glossary On
Versions: 1 2 3 4 5 6 7 8 9 10 11 12 13 14 15 16 17 18 19 20 21 22 23 24 25 26 27 28 29 30 31 32 33 34 35 36 37 38 39 40 41 42 43 44 45 46 47 48 49 50
000
ASUS43 KFSD 241202
RWRSD

WEATHER ROUNDUP FOR SOUTH DAKOTA
NATIONAL WEATHER SERVICE SIOUX FALLS SD
600 AM CST TUE JAN 24 2017

NOTE: "FAIR" INDICATES FEW OR NO CLOUDS BELOW 12,000 FEET WITH NO
SIGNIFICANT WEATHER AND/OR OBSTRUCTIONS TO VISIBILITY.


SDZ001>005-009-010-012>017-241300-
NORTHWEST AND NORTH CENTRAL SOUTH DAKOTA

CITY           SKY/WX    TMP DP  RH WIND       PRES   REMARKS
BUFFALO          N/A     23  19  85 N8        29.71R WCI  14
FAITH            N/A     24  22  91 N18       29.76F WCI  10
MOBRIDGE       CLOUDY    28  22  78 NE15      29.79R HAZE    WCI  16
$$

SDZ012>016-024>037-041>051-057-063-072>074-241300-
SOUTHWEST AND SOUTH CENTRAL SOUTH DAKOTA

CITY           SKY/WX    TMP DP  RH WIND       PRES   REMARKS
RAPID CTY ARPT FOG       22  20  92 N21       29.72R VSB 1   WCI   6
PIERRE         FOG       28  27  96 NE14      29.75F VSB 3/4 WCI  17
CUSTER         LGT SNOW  21  17  84 NE7       29.56S FOG     WCI  12
PHILIP         CLOUDY    26  26 100 N15       29.74S FOG     WCI  14
PINE RIDGE     LGT SNOW  24  23  96 NE8       29.65S FOG     WCI  15
SPEARFISH      SNOW      16  16 100 VRB5      29.74R VSB 1/4 WCI   9
WINNER         FOG       31  30  96 E8        29.71S VSB 1/2 WCI  23
$$

SDZ004>011-016>023-039-040-241300-
NORTHEAST SOUTH DAKOTA

CITY           SKY/WX    TMP DP  RH WIND       PRES   REMARKS
ABERDEEN       CLOUDY    28  25  88 NE10      29.85S WCI  19
WATERTOWN      CLOUDY    28  26  92 E7        29.81F WCI  21
BROOKINGS      CLOUDY    29  28  96 E9        29.81R WCI  20
SISSETON         N/A     31  30  96 NE6       29.86S WCI  25
$$

SDZ017-020-022-023-036>040-048>070-241300-
SOUTHEAST SOUTH DAKOTA

CITY           SKY/WX    TMP DP  RH WIND       PRES   REMARKS
SIOUX FALLS    CLOUDY    32  30  92 E7        29.80R WCI  26
HURON          CLOUDY    30  29  96 E7        29.80S WCI  23
CHAMBERLAIN    CLOUDY    31  31 100 E9        29.75R FOG     WCI  23
MITCHELL       CLOUDY    32  30  92 E10       29.79F WCI  24
YANKTON        CLOUDY    30  28  93 E9        29.76S WCI  22
$$

ABBREVIATIONS USED IN REMARKS
   TC - TEMPERATURE IN CELSIUS
  WCI - WIND CHILL INDEX
   HX - HEAT INDEX
  VSB - VISIBILITY





USA.gov is the U.S. government's official web portal to all federal, state and local government web resources and services.